Regional Weather Roundup
Issued by NWS

Home | Current Version | Previous Version | Text Only | Print | Product List | Glossary Off
Versions: 1 2 3 4 5 6 7 8 9 10 11 12 13 14 15 16 17 18 19 20 21 22 23 24 25 26 27 28 29 30 31 32 33 34 35 36 37 38 39 40 41 42 43 44 45 46 47 48 49 50

000
ASUS45 KTFX 121610
RWRMT
MONTANA REGIONAL WEATHER ROUNDUP
NATIONAL WEATHER SERVICE GREAT FALLS MT
900 AM MST FRI FEB 12 2016

NOTE: "FAIR" INDICATES FEW OR NO CLOUDS BELOW 12000 FEET WITH NO
SIGNIFICANT WEATHER AND/OR OBSTRUCTIONS TO VISIBILITY.

MTZ001>007-043-121700-
WEST OF THE DIVIDE

CITY           SKY/WX    TMP DP  RH WIND       PRES   REMARKS
KALISPELL      FOG       34  33  96 N5        30.20F VSB 3/4
MISSOULA       FOG       35  34  96 CALM      30.23F VSB 3/4
BUTTE          CLOUDY    34  31  88 NE5       30.24S
MULLAN PASS    FOG       35  34  96 S7        30.17F VSB 1/4 WCI  29
ANACONDA         N/A     43  36  75 S8        30.22S
DEER LODGE       N/A     36  36 100 CALM      30.24R
HAMILTON         N/A     34  34 100 CALM      30.22F VSB 0
THOMPSON FALLS   N/A     38  37  96 CALM      30.24F
$$

MTZ008-052>055-121700-
SOUTHWEST MONTANA

CITY           SKY/WX    TMP DP  RH WIND       PRES   REMARKS
BOZEMAN        CLOUDY    34  32  92 CALM      30.24F
DILLON         CLOUDY    36  29  75 SW10      30.25S WCI  28
ENNIS          SUNNY     37  32  81 S7        30.31S
TWIN BRIDGES     N/A     35  29  79 SE3       30.21S
$$

MTZ009-010-012-014-046-048-049-054-121700-
EAST SLOPES AND CENTRAL MONTANA

CITY           SKY/WX    TMP DP  RH WIND       PRES   REMARKS
CUT BANK       CLOUDY    32  30  92 SE10      30.18F WCI  24
GREAT FALLS    CLOUDY    33  31  92 E8        30.19F WCI  26
MALMSTROM AFB  CLOUDY    32  32 100 NE6       30.21F FOG     WCI  26
HELENA         CLOUDY    36  33  89 CALM      30.22F
CHOTEAU          N/A     34  32  93 S5        30.20F
$$

MTZ011-013-016-021-045-047-050-051-121700-
NORTH CENTRAL MONTANA

CITY           SKY/WX    TMP DP  RH WIND       PRES   REMARKS
HAVRE          CLOUDY    29  27  92 E18G28    30.28S WCI  16
LEWISTOWN      CLOUDY    33  28  81 SE13      30.23S WCI  24
N BAR RANCH    FOG       28  28 100 E8        30.27S VSB<1/4 WCI  20
CHINOOK          N/A     25  25 100 E14G23    30.33S WCI  13
$$

MTZ017>020-022>027-061-062-121700-
NORTHEAST MONTANA

CITY           SKY/WX    TMP DP  RH WIND       PRES   REMARKS
GLASGOW        CLOUDY    15   9  76 E17       30.44S WCI  -1
JORDAN           N/A     24  23  96 E12       30.37S WCI  13
SIDNEY         CLOUDY    10   5  79 NE12      30.52S WCI  -4
WOLF POINT     CLOUDY    12   3  67 E15       30.51F WCI  -4
PLENTYWOOD       N/A      1  -8  66 E7        30.52S WCI -11
POPLAR           N/A      7   0  72 NE10      30.54S WCI  -8
SCOBEY           N/A      5 -11  48 NE7       30.44R WCI  -7
$$

MTZ028>42-056>058-121700-
SOUTHCENTRAL AND SOUTHEAST MONTANA

CITY           SKY/WX    TMP DP  RH WIND       PRES   REMARKS
BAKER          CLOUDY    22  16  78 E10       30.41S WCI  11
BILLINGS       CLOUDY    32  29  88 NE10      30.28F WCI  24
LIVINGSTON     CLOUDY    38  30  73 CALM      30.23F
MILES CITY     CLOUDY    28  23  81 NE13      30.38S WCI  17
FORSYTH          N/A     32  28  86 E10       30.36R WCI  24
LAUREL           N/A     34  27  76 N6        30.22F WCI  29
ROUNDUP          N/A     31  27  85 CALM      30.18F
$$

REGIONAL REPORTS...DAKOTAS

CITY           SKY/WX    TMP DP  RH WIND       PRES   REMARKS
WILLISTON      CLOUDY     4  -4  69 NE6       30.56S WCI  -7
MINOT          CLOUDY     2 -10  57 N7        30.60R WCI -11
DICKINSON      CLOUDY     6  -4  63 E10       30.46R WCI  -9
BEACH          FLURRIES  16  16 100 E10       30.46F WCI   3
CROSBY           N/A      1  -4  78 CALM      30.59S
TIOGA            N/A      0  -4  85 E6        30.58S WCI -12
WATFORD CITY     N/A      7  -4  61 SE7       30.54S WCI  -5
BISMARCK       CLOUDY     7  -2  66 N9        30.60R WCI  -7
GRAND FORKS    MOSUNNY   -4 -14  62 N20       30.64R WCI -27
FARGO          MOSUNNY    0  -9  65 N20       30.60R WCI -22
BUFFALO SD       N/A     21  19  92 NE12      30.34S WCI   9
RAPID CITY     CLOUDY    28  26  92 NE7       30.39R WCI  21
$$

REGIONAL REPORTS...WYOMING/IDAHO/WASHINGTON

CITY           SKY/WX    TMP DP  RH WIND       PRES   REMARKS
GILLETTE       CLOUDY    29  27  92 SE7       30.33R WCI  22
SHERIDAN       CLOUDY    33  28  81 CALM      30.31R
BUFFALO WY     CLOUDY    33  28  81 S7        30.29F WCI  27
CODY           CLOUDY    37  25  60 CALM      30.25S
YELLOWSTONE LA   N/A     31  28  89 CALM      30.36F
IDAHO FALLS    CLOUDY    19  16  88 N5        30.37S FOG
SALMON         SUNNY     21  19  93 CALM      30.35S
BOISE          PTSUNNY   31  28  89 CALM      30.35R
SPOKANE        CLOUDY    38  38 100 CALM      30.17F FOG
$$

REGIONAL REPORTS...ALBERTA

CITY           SKY/WX    TMP DP  RH WIND       PRES   REMARKS
EDMONTON       CLOUDY    18  12  79 SE12      30.23F WCI   5
CALGARY        FOG       27  25  93 SE14G21   30.12F VSB 1/4 WCI  15
LETHBRIDGE     CLOUDY    32  32 100 SE8G28    30.15F FOG     WCI  25
MEDICINE HAT   CLOUDY    25  23  93 E10G17    30.26F WCI  15
WATERTON GATE    N/A     37  36  93 SW9G18      N/A  WCI  31
CARDSTON         N/A     28  28 100 NW3         N/A
MILK RIVER       N/A     32  30  93 S20G25      N/A  WCI  20
$$

REGIONAL REPORTS...SASKATCHEWAN

CITY           SKY/WX    TMP DP  RH WIND       PRES   REMARKS
SWIFT CURRENT  CLOUDY     7   5  92 SE17      30.37F WCI -12
REGINA         MOSUNNY    1  -4  78 E8        30.56F WCI -12
SASKATOON      PTSUNNY   -2  -8  78 SE13      30.59F WCI -21
CYPRESS HILLS    N/A     18  14  86 SE6         N/A  WCI   9
VAL MARIE        N/A     16  12  86 SE10        N/A  WCI   3
ROCKGLEN         N/A      3  -4  72 E10         N/A  WCI -12
ASSINIBOIA       N/A     14   9  79 SE10G17     N/A  WCI   1
$$



USA.gov is the U.S. government's official web portal to all federal, state and local government web resources and services.